Hourly Data Report for September 10, 2016

All times are specified in Local Standard Time (LST). Add 1 hour to adjust for Daylight Saving Time where and when it is observed.

CORAL HARBOUR A
NUNAVUT

64°11'36.000" N
83°21'34.000" W
62.20 m
2301002
71915
YZS

Download Data

Hourly Data (September 2016)
Hourly Data Report for September 10, 2016
Temp Definition
°C
Dew Point Temp Definition
°C
Rel Hum Definition
%
Wind Dir Definition
10's deg

Wind Spd Definition
km/h
Visibility Definition
km
Stn Press Definition
kPa
Hmdx Definition


Wind Chill Definition


Weather Definition


TIME
00:00 Legend Double Dagger 4.4 1.9 84 7 13 24.1 100.32     LegendNANA
01:00 Legend Double Dagger 4.4 2.1 85 5 14 24.1 100.27     Mainly Clear
02:00 Legend Double Dagger 4.4 1.6 82 6 16 24.1 100.20     LegendNANA
03:00 Legend Double Dagger 4.6 1.6 81 6 17 24.1 100.14     LegendNANA
04:00 Legend Double Dagger 5.2 2.7 84 6 16 24.1 100.11     Mainly Clear
05:00 Legend Double Dagger 5.6 2.6 81 5 19 24.1 100.07     LegendNANA
06:00 Legend Double Dagger 5.7 2.9 82 6 19 24.1 100.05     LegendNANA
07:00 Legend Double Dagger 5.4 3.3 86 7 19 24.1 100.06     Mostly Cloudy
08:00 Legend Double Dagger 5.9 3.6 85 6 21 24.1 100.05     LegendNANA
09:00 Legend Double Dagger 7.4 4.4 81 8 19 24.1 100.02     LegendNANA
10:00 Legend Double Dagger 9.0 4.5 73 10 18 24.1 100.00     Mostly Cloudy
11:00 Legend Double Dagger 10.3 5.5 72 10 16 24.1 99.96     LegendNANA
12:00 Legend Double Dagger 10.5 4.2 65 10 18 24.1 99.93     LegendNANA
13:00 Legend Double Dagger 10.3 3.8 64 11 19 24.1 99.92     Mostly Cloudy
14:00 Legend Double Dagger 11.2 3.3 58 10 18 24.1 99.89     LegendNANA
15:00 Legend Double Dagger 10.1 1.8 56 11 21 24.1 99.89     LegendNANA
16:00 Legend Double Dagger 10.6 0.7 50 10 16 24.1 99.89     Mostly Cloudy
17:00 Legend Double Dagger 10.3 -1.7 43 10 17 24.1 99.90     LegendNANA
18:00 Legend Double Dagger 9.0 2.1 62 7 13 24.1 99.91     LegendNANA
19:00 Legend Double Dagger 7.1 1.2 66 9 18 24.1 99.92     Mostly Cloudy
20:00 Legend Double Dagger 5.4 1.0 73 7 11 24.1 99.93     LegendNANA
21:00 Legend Double Dagger 5.1 1.6 78 3 9 24.1 99.91     LegendNANA
22:00 Legend Double Dagger 4.7 0.5 74 4 12 24.1 99.88     Mainly Clear
23:00 Legend Double Dagger 4.6 -2.7 59 7 24 24.1 99.83     LegendNANA

Notes on Data Quality.

Legend

  • E = Estimated
  • M = Missing
  • NA = Not Available
  • ‡ = Partner data that is not subject to review by the National Climate Archives
Date modified: